Regional Weather Roundup
Issued by NWS

Home | Current Version | Previous Version | Text Only | Print | Product List | Glossary Off
Versions: 1 2 3 4 5 6 7 8 9 10 11 12 13 14 15 16 17 18 19 20 21 22 23 24 25 26 27 28 29 30 31 32 33 34 35 36 37 38 39 40 41 42 43 44 45 46 47 48 49 50

000
ASUS43 KLMK 220610
RWRKY
KENTUCKY REGIONAL WEATHER ROUNDUP
NATIONAL WEATHER SERVICE LOUISVILLE KY
200 AM EDT FRI AUG 22 2014

NOTE "FAIR" INDICATES FEW OR NO CLOUDS BELOW 12,000 FEET
WITH NO SIGNIFICANT WEATHER AND/OR OBSTRUCTIONS TO VISIBILITY.

KYZ001>023-026-027-061>063-070>075-220700-
WESTERN AND SOUTH CENTRAL KENTUCKY

CITY           SKY/WX    TMP DP  RH WIND       PRES   REMARKS
PADUCAH        FAIR      80  74  81 S7        30.03F
HENDERSON      FAIR      73  70  88 SW3       30.02F
OWENSBORO      FAIR      77  72  84 SE3       30.04S
HOPKINSVILLE   FAIR      77  77  99 SW3       30.06F
BOWLING GREEN  FAIR      79  71  76 SW6       30.07F
GLASGOW        FAIR      76  71  87 CALM      30.08S
$$

KYZ024-025-028>034-038-045-046-053-220700-
NORTH CENTRAL KENTUCKY

CITY           SKY/WX    TMP DP  RH WIND       PRES   REMARKS
LOUISVILLE/SDF CLOUDY    79  72  79 SW7       30.03F
LOUISVILLE/LOU FAIR      78  73  84 S5        30.03F
FORT KNOX      FAIR      73  73 100 S2        30.05S
$$

KYZ035>037-039>044-047>052-055>060-089>105-220700-
NORTHEAST KENTUCKY

CITY           SKY/WX    TMP DP  RH WIND       PRES   REMARKS
LEXINGTON      FAIR      78  72  81 SW9       30.06F
COVINGTON      LGT RAIN  72  70  94 SE3       30.04F
FRANKFORT      FAIR      76  72  87 SW8       30.04F
$$

KYZ054-064>069-076>088-106>120-220700-
SOUTHEAST KENTUCKY

CITY           SKY/WX    TMP DP  RH WIND       PRES   REMARKS
JACKSON        FAIR      71  68  90 CALM      30.10F
LONDON         FAIR      75  69  81 S3        30.11F
SOMERSET       FAIR      73  73 100 CALM      30.10F
MIDDLESBORO    FAIR      70  69  99 CALM      30.12F
MONTICELLO     FAIR      71  70  97 CALM      30.11S
$$




USA.gov is the U.S. government's official web portal to all federal, state and local government web resources and services.